sat.trackr.live / text

‹ back to catalog

STARLINK-37616

NORAD 69040 · 2026-101R

PAYLOAD ACTIVE UNKNOWN

§ Identity

Operator
Country
US
Launch date
2026-05-06
Launch site
AFWTR
Launch vehicle
Mass (kg)
RCS (m²)

Purposes: comms

External: N2YO · Heavens-Above · Gunter

§ Orbital elements

Epoch: 2026-05-25T03:19:53.442336Z

Period
91.42 min
Inclination
97.2846°
Eccentricity
0.0001295
Mean motion
15.75215469 rev/d
Perigee alt
343.1 km
Apogee alt
344.9 km
Semi-major
6,722.2 km
B*
6.4023e-4
RAAN
359.9112°
Arg perigee
94.7387°
Mean anomaly
265.4026°
Rev number
301

§ Raw data

STARLINK-376161 69040U 26101R   26145.13881299  .00096557  00000+0  64023-3 0  99972 69040  97.2846 359.9112 0001295  94.7387 265.4026 15.75215469  3016

JSON: /api/v1/satellites/69040 · /tle

For live sub-satellite position, see the globe view (requires WebGL).

§ Visibility from observer

Set your observer location to see the next 7 days of passes ≥ 10°. The values pass through the URL so the page stays shareable.

No JS? Fill the form by hand. The geolocation button needs JavaScript.